FENGYUN 1C DEB, 30182

Orbit data source: Space-Track

FENGYUN 1C DEB, 30182 is space debris in SSO originally from a launch on Mon, 10 May 1999 UTC launched from the Taiyaun Space Center, China (TSC). Fengyun 1C debris stems from the Chinese weather satellite Fengyun-1C, which was intentionally destroyed by a Chinese anti-satellite missile in 2007. This event dramatically increased the amount of space debris, with thousands of trackable fragments posing hazards to satellites and human spaceflight. The Fengyun 1C debris cloud has become a focal point in discussions about space sustainability and the need for international regulations to prevent the creation of new debris.

Loading next visibility...
Identifier
30182, 1999-025UP
Orbit
SSO
Country
Flag of CNCN / PRC
Related business
Manufacturer
Unknown
Mission
Spacecraft
Bus & Motor
Unknown
Mass
Unknown
Launch date (UTC)
1999-05-10 (27 years ago)
Launch vehicle
Unknown
Launch site
Taiyaun Space Center, China (TSC)
Object type
Payload
Rocket body
Debris
Shape & HBR
Unknown shape, 0.2 m
Radar Cross Section
Small (<0.1 m²)

Expand to show TLE details & history
Last TLE update: 7 hours ago

TLE from 7 hours ago
0 FENGYUN 1C DEB
1 30182U 99025UP  25354.12161264 -.00000018  00000-0  18416-4 0  9995
2 30182  99.0645  44.9882 0074639   2.4435  25.3000 13.96459374964113
Epoch: 2025-12-20T02:55Z
TLE epoch observation values (Epoch: 2025-12-20T02:55:07.332Z)
Latitude
27.77298°
Longitude
-92.53942°
Altitude
860.361 km
Speed
7.45 km/s
True Right ascension
02h 40m 46s
True Declination
27° 38' 00"
Sunlit
Object was in full shadow at epoch
Visualization orbit readout
Latitude
Unknown
Longitude
Unknown
Altitude
Unknown
Speed
Unknown
Apparent Right ascension
Unknown
Apparent Declination
Unknown
Sunlit
N/A
Visualization observer readout
Local Sidereal Time
09:08:37
Azimuth
Unknown
Elevation
Unknown
Doppler factor
Unknown
Orbital elements
Apogee altitude
957.637 km
Perigee altitude
848.941 km
Semi-major axis
7,281.426 km
Eccentricity
0.00746
Inclination
99.0645°
RAAN
44.9882°
Arg. of periapsis
2.4435°
True anomaly
25.66862°
Mean anomaly
25.3°
Eccentric anomaly
25.484°
Mean motion
3.49316 °/min
Orbital period
103.06 mins
BSTAR
0.000018416
Loading maneuver chart data...
Computing Atmospheric mass density...

Documentation

Showing up to 5 results
|